Temperature
14 14 14 14 14 14 14 14 14 15 15 15 15 15 15 15 16 16 16 17 17 17 17 17 17 17 17 17 17 17 17 17 17 17 17 17 17 17 17 17 17 18 18
14 14 14 14 14 14 14 14 14 14 14 15 15 15 15 15 15 15 16 16 17 17 17 17 17 17 17 17 17 17 17 17 17 17 17 17 17 17 17 17 17 17 17
14 14 14 14 14 14 14 14 14 14 14 14 15 15 15 15 15 15 16 16 16 16 17 17 17 17 17 17 17 17 17 17 17 17 17 17 17 17 17 17 17 17 17
14 13 13 14 13 13 13 13 14 14 14 14 15 15 15 15 15 15 16 16 16 16 16 17 17 17 17 17 17 17 17 17 17 17 17 17 17 17 17 17 17 17 17
13 13 13 13 13 13 13 13 14 14 14 14 14 15 15 15 15 15 15 16 16 16 16 16 16 17 17 17 17 17 17 17 17 17 17 17 17 17 17 17 17 17 17
13 13 13 13 13 13 13 13 13 13 14 14 14 14 14 15 15 15 15 15 16 16 16 16 16 16 16 17 17 17 17 17 17 17 17 17 17 17 17 17 17 17 17
13 13 13 13 13 13 13 13 13 13 13 14 14 14 14 15 15 15 15 15 15 15 16 16 16 16 16 16 17 17 17 17 17 17 17 17 17 17 17 17 17 17 17
13 13 13 13 13 13 13 13 13 13 13 13 14 15 15 15 15 15 15 15 15 15 15 16 16 16 16 16 16 16 17 17 17 17 17 17 17 17 17 17 17 17 17
13 13 13 13 13 13 13 13 13 13 13 13 14 14 15 16 15 15 14 15 15 15 15 15 15 15 16 16 16 16 16 16 16 16 17 17 17 17 17 17 17 17 17
13 13 13 13 13 13 13 13 13 13 13 13 14 14 14 14 15 15 15 15 14 15 15 15 15 15 16 16 16 16 16 16 16 16 16 16 16 16 17 16 16 16 16
13 13 13 13 13 13 13 13 13 13 13 13 13 14 14 14 14 15 15 14 14 14 15 15 15 15 15 15 16 16 16 16 16 16 16 16 16 16 16 16 16 16 16
13 13 13 13 13 13 13 13 13 13 13 13 13 13 14 14 14 14 15 14 14 14 14 14 15 15 15 15 15 15 16 16 16 16 16 16 16 16 16 16 16 16 16
13 13 13 13 13 13 13 13 13 13 13 13 13 13 13 13 14 14 14 14 14 14 14 14 14 15 15 15 15 15 15 15 16 16 16 16 16 16 16 16 16 16 16
14 13 13 13 13 13 13 13 13 13 13 13 13 13 13 13 13 13 14 14 14 15 14 14 14 14 14 14 15 15 15 15 15 15 16 16 16 16 16 16 16 16 16
13 13 13 13 13 13 13 13 13 13 13 13 13 13 13 13 13 13 13 13 14 15 15 14 14 14 14 14 15 15 15 15 15 15 15 15 15 15 15 15 15 15 15
14 13 13 13 13 13 13 13 13 13 13 13 13 13 13 13 13 13 13 13 13 14 14 14 14 14 14 14 14 14 14 15 15 15 15 15 15 15 15 15 15 15 15
14 13 13 13 13 13 13 13 13 13 13 13 13 13 13 13 13 13 13 13 13 14 14 14 14 14 14 14 14 14 14 14 14 15 15 15 15 15 15 15 15 15 15
14 14 13 13 13 13 13 13 13 13 13 13 13 13 13 13 13 13 13 13 13 13 14 14 14 13 13 13 14 14 14 14 14 14 14 15 15 15 15 15 15 15 15
14 14 13 13 13 13 13 13 13 13 13 13 13 13 13 13 13 13 13 13 13 13 13 13 13 13 13 13 13 13 14 14 14 14 14 14 14 14 14 14 14 14 14
14 14 14 13 13 13 13 13 13 13 13 13 13 13 13 13 13 13 13 13 13 13 13 13 13 13 13 13 13 13 13 13 13 13 13 14 14 14 14 14 14 14 14
14 14 14 14 13 13 13 13 13 13 13 13 13 13 13 13 13 13 13 13 13 13 13 13 13 13 13 13 13 13 13 13 13 13 13 13 13 13 13 13 13 13 14
14 14 14 14 13 13 14 14 13 13 13 13 13 13 13 13 13 13 13 13 13 13 13 13 13 13 13 13 13 13 13 13 13 13 13 13 13 13 13 13 13 13 13
14 14 14 14 14 14 14 14 13 13 13 13 13 13 13 13 13 13 13 13 13 13 13 13 13 13 13 13 12 13 12 12 13 12 12 12 12 12 12 12 13 13 13
14 14 14 14 14 14 14 14 13 13 13 13 13 13 13 13 13 13 12 12 12 12 12 12 12 12 12 12 12 12 12 12 12 12 12 12 12 12 12 12 12 12 12
14 14 14 14 14 14 14 14 13 13 13 13 13 13 13 13 13 13 12 12 12 12 12 12 12 12 12 12 12 12 12 12 12 12 12 12 12 12 12 12 12 12 12
14 14 14 14 14 14 14 14 13 13 13 13 13 13 13 13 13 13 12 12 12 12 12 12 12 12 12 12 12 12 12 12 12 12 12 11 11 11 11 11 11 11 11
Wind_Speed
4 4 4 4 5 4 4 4 5 4 5 4 4 4 4 4 4 4 1 2 1 3 3 2 4 4 4 4 5 7 7 6 6 6 7 9 9 10 10 11 12 12 12
4 4 5 4 4 5 5 5 5 4 4 4 4 4 4 4 4 4 3 2 2 2 2 3 4 5 4 5 5 7 8 8 7 7 8 8 8 8 10 11 11 11 11
5 4 5 4 4 5 5 4 5 4 4 4 4 4 3 3 3 4 3 3 3 4 3 3 4 4 4 5 6 7 8 8 8 8 8 7 7 7 9 10 11 10 10
5 5 4 4 5 5 4 4 4 4 3 3 3 3 2 2 3 3 3 3 3 3 4 4 4 4 4 5 6 7 8 9 9 8 8 8 7 8 8 10 11 10 10
5 5 4 5 5 4 4 4 3 4 3 3 3 2 2 2 2 3 3 3 3 2 3 5 5 4 4 5 6 7 8 9 9 9 9 9 8 8 8 10 10 10 10
5 5 4 5 5 4 4 3 3 3 3 3 3 1 1 1 1 1 2 2 2 2 3 3 4 6 5 5 5 6 8 9 10 9 9 9 9 8 8 9 10 10 10
4 4 4 4 4 4 4 4 3 3 2 2 2 1 1 1 1 1 1 1 2 2 2 2 3 3 5 6 5 5 6 8 9 10 10 10 9 9 9 9 9 9 10
4 4 4 4 4 3 3 3 3 3 2 2 3 2 1 2 1 1 1 1 1 2 2 2 2 3 3 4 5 6 5 6 7 9 10 10 10 9 9 9 10 9 10
4 4 5 5 4 4 3 3 3 3 2 2 2 2 2 1 0 2 1 1 1 1 1 1 1 2 3 3 4 5 5 6 7 9 10 11 10 10 10 10 9 9 9
3 4 4 4 4 3 3 3 2 2 3 2 1 2 3 2 1 1 1 1 2 1 2 1 1 1 2 2 3 4 5 5 6 8 9 10 11 11 10 11 10 10 10
2 3 4 4 3 3 3 3 2 3 2 3 2 2 2 2 3 2 2 1 1 1 1 1 0 0 1 2 3 4 5 6 6 6 8 9 10 10 11 11 11 10 10
2 3 3 4 3 3 3 3 2 2 2 2 3 2 2 2 2 2 2 2 1 1 1 1 0 0 0 1 2 4 6 6 6 6 7 7 9 9 10 10 10 10 10
2 3 3 3 3 3 3 3 2 2 2 2 2 2 2 2 2 2 2 1 1 1 1 2 1 1 1 1 2 3 5 5 5 6 6 7 8 9 9 10 9 10 9
3 3 3 3 4 3 3 2 2 2 2 2 2 2 2 2 2 2 2 2 2 2 2 2 2 2 1 1 2 3 4 6 5 6 7 7 8 8 8 9 9 9 8
3 3 3 3 3 3 3 2 2 2 2 2 2 3 3 2 2 2 3 3 3 2 2 2 1 1 1 1 1 3 3 6 6 6 7 8 8 8 8 8 8 8 8
3 3 3 3 3 2 2 2 2 2 2 2 2 3 3 2 2 2 3 3 4 3 2 1 1 1 1 2 2 2 2 6 6 6 7 8 9 9 8 8 8 8 8
4 3 3 3 3 3 2 2 2 2 2 2 2 2 2 2 2 2 3 3 3 3 3 2 1 1 2 2 2 2 3 4 5 7 6 6 7 8 8 8 8 9 8
4 4 3 3 3 2 2 2 2 2 2 2 2 2 2 2 3 3 3 3 3 3 3 3 2 1 2 2 2 2 2 2 3 6 6 6 5 6 7 7 8 9 9
5 5 4 4 3 3 3 3 3 3 3 3 3 3 2 2 3 3 3 3 3 2 3 3 2 1 1 2 2 2 2 1 2 5 6 6 6 6 5 6 7 8 8
6 5 5 4 4 4 4 3 3 3 3 2 2 2 2 3 3 3 3 4 3 3 3 3 3 2 2 1 2 2 2 2 2 2 3 4 5 5 5 6 7 7 7
6 6 6 5 4 4 4 4 4 4 3 2 2 2 2 1 3 3 3 3 3 4 3 3 3 2 2 2 2 2 2 2 2 2 2 2 3 2 4 5 6 6 5
7 6 6 6 5 4 1 3 6 4 4 3 3 2 2 2 2 3 2 2 3 4 4 3 3 3 2 2 2 2 2 2 2 2 2 1 1 1 1 2 4 4 4
7 7 7 7 7 5 3 4 6 6 5 4 4 3 2 2 3 3 5 6 3 3 4 4 3 3 2 2 2 3 2 2 1 2 2 2 2 2 2 3 6 4 4
8 8 8 8 7 6 6 6 7 7 6 5 5 4 4 3 2 3 3 3 3 3 3 4 3 2 1 1 2 2 2 2 2 2 3 2 2 2 2 3 6 5 4
8 8 8 8 8 8 7 8 8 6 6 6 5 5 5 4 2 2 4 4 3 3 2 1 2 2 4 3 1 3 3 4 3 2 2 2 2 2 2 2 5 7 5
9 9 9 9 9 9 7 9 10 7 7 6 5 5 3 4 2 4 6 5 5 4 4 4 4 4 3 3 3 4 3 4 3 2 2 2 2 2 2 2 2 3 4
Wind_Direction
330 331 321 325 315 314 304 302 294 299 291 292 286 284 280 270 273 268 248 122 279 276 257 212 186 184 177 173 166 159 154 144 132 128 138 136 132 134 137 140 138 138 140
328 327 323 323 319 313 311 301 293 293 286 285 286 284 278 269 261 268 262 194 184 233 245 219 195 188 184 179 176 167 162 155 145 135 134 135 134 138 142 144 146 147 149
329 329 326 322 319 313 304 299 297 291 286 280 276 277 270 267 256 255 250 254 216 186 191 214 208 196 191 184 184 177 169 161 156 151 146 146 144 145 150 152 154 155 156
338 333 326 326 323 314 308 302 296 292 287 286 283 278 267 259 259 257 248 236 234 222 179 177 194 194 188 183 186 184 178 169 165 164 163 163 158 155 162 162 160 160 161
336 331 331 329 326 318 309 301 297 297 293 290 277 271 271 260 263 249 239 230 220 221 202 163 172 170 178 185 190 191 186 180 173 171 172 172 167 164 164 166 166 165 165
341 336 328 332 329 320 315 304 297 290 292 282 278 279 281 252 242 259 250 221 214 211 207 186 177 167 162 173 188 198 194 187 181 178 176 174 174 174 171 171 172 170 167
342 334 327 335 330 329 321 311 295 277 276 274 261 248 212 203 172 176 230 229 188 177 185 189 190 182 168 167 178 195 196 196 189 183 181 181 180 179 179 178 176 175 175
341 332 330 327 331 326 319 312 300 286 276 273 272 261 230 185 158 147 169 196 187 160 176 176 179 184 191 173 162 181 188 195 187 183 182 180 182 183 184 185 186 187 187
336 335 333 329 328 321 325 309 293 275 276 269 286 283 277 254 136 151 132 144 134 142 161 159 188 188 189 175 167 169 178 187 191 187 186 183 182 185 188 190 189 190 194
328 334 332 329 326 324 321 313 309 287 272 261 250 278 296 313 266 189 156 121 121 140 137 143 181 203 200 167 154 152 165 173 185 187 188 186 188 190 192 192 192 193 197
323 331 327 328 326 323 322 319 310 289 273 272 264 255 256 256 259 250 204 181 157 147 133 133 174 185 211 178 171 161 169 178 180 182 183 186 189 191 193 195 196 197 198
315 336 330 330 329 326 319 311 297 284 282 274 270 262 256 256 251 236 221 203 200 168 162 149 172 158 142 148 146 133 166 176 184 184 180 184 189 191 193 194 197 200 200
311 332 332 334 336 327 319 312 295 293 271 265 267 275 275 271 269 261 239 218 221 208 185 182 164 160 163 155 133 128 156 162 179 187 181 182 185 190 194 195 197 196 199
312 324 327 338 336 328 314 308 294 287 276 258 260 269 270 269 263 254 246 238 231 214 197 182 170 175 173 175 122 191 169 160 174 185 186 184 186 188 195 197 198 201 205
298 309 319 328 333 329 316 304 298 287 285 284 270 254 255 260 255 249 241 245 254 245 212 173 184 176 197 206 175 209 183 153 173 187 189 187 190 193 194 193 195 200 206
285 289 304 319 326 327 318 307 300 305 280 273 274 268 257 253 246 242 240 244 251 256 253 184 178 187 197 213 175 209 168 161 180 182 187 185 190 194 194 193 194 196 197
269 274 286 303 316 318 316 298 293 296 288 281 256 250 250 258 244 231 235 241 243 241 236 227 195 178 195 204 172 175 161 175 168 169 184 189 190 195 196 196 195 197 198
260 264 274 287 295 297 300 302 299 289 283 285 278 262 250 230 241 246 243 239 235 236 232 225 203 186 208 204 190 182 169 169 176 158 170 178 179 180 184 190 194 198 202
250 249 255 266 275 279 281 278 280 279 274 279 284 281 274 252 238 238 241 240 233 227 226 227 217 187 214 198 191 187 166 148 163 158 164 168 171 177 187 193 195 196 200
247 249 253 258 265 269 274 273 270 272 272 278 283 282 280 271 259 249 237 234 224 220 221 223 219 209 211 216 207 194 175 162 154 141 135 150 159 176 187 190 192 193 198
248 248 251 255 261 266 275 281 272 268 271 269 266 272 279 311 348 308 275 244 220 218 218 220 216 217 215 206 207 209 193 177 152 153 153 154 157 170 177 186 187 186 194
242 245 246 250 252 254 252 273 278 267 261 254 255 256 239 204 209 218 272 301 285 235 222 222 225 223 226 210 194 197 198 201 183 164 180 156 156 167 155 152 128 154 175
237 242 244 246 248 241 204 228 250 264 260 256 255 250 245 230 225 219 193 196 213 257 274 257 234 234 227 210 202 207 202 213 193 156 193 184 174 176 136 105 119 133 146
236 239 244 246 247 240 206 223 235 246 251 249 248 249 244 235 229 247 219 202 198 197 218 232 238 251 250 201 205 223 209 188 164 171 207 209 191 189 153 126 127 131 131
238 237 240 242 244 237 207 214 228 241 242 244 243 244 248 238 162 251 230 213 207 198 145 119 26 47 59 54 295 202 204 205 203 189 198 215 194 194 193 177 144 148 145
240 240 240 241 244 247 207 206 225 236 238 237 234 230 222 245 191 217 228 222 223 219 209 188 189 192 193 169 210 227 222 223 216 195 174 204 207 210 212 189 172 167 164
Height
1524 1523 1522 1520 1519 1518 1517 1516 1516 1516 1515 1515 1516 1516 1516 1516 1516 1517 1517 1517 1518 1519 1520 1521 1522 1523 1524 1525 1526 1526 1527 1527 1528 1527 1525 1529 1531 1533 1535 1537 1539 1541 1543
1523 1522 1521 1519 1518 1517 1516 1515 1515 1514 1514 1514 1514 1514 1514 1514 1514 1515 1516 1516 1517 1518 1519 1520 1521 1523 1524 1525 1526 1527 1527 1528 1528 1528 1528 1530 1533 1534 1536 1538 1540 1542 1544
1522 1521 1519 1518 1517 1516 1515 1514 1514 1513 1513 1512 1512 1512 1512 1512 1513 1514 1514 1515 1516 1517 1518 1519 1520 1522 1523 1524 1525 1526 1527 1528 1529 1530 1531 1532 1534 1535 1536 1538 1540 1542 1544
1521 1519 1518 1517 1515 1514 1513 1513 1512 1512 1512 1511 1511 1511 1511 1511 1511 1512 1513 1514 1515 1516 1517 1518 1519 1521 1522 1523 1524 1526 1527 1528 1529 1530 1532 1533 1534 1535 1536 1537 1540 1542 1545
1520 1519 1517 1515 1515 1513 1512 1512 1512 1511 1511 1510 1510 1510 1510 1510 1510 1511 1512 1512 1513 1514 1516 1516 1518 1519 1521 1522 1524 1525 1527 1528 1529 1531 1532 1533 1535 1536 1536 1538 1540 1543 1545
1519 1517 1516 1515 1513 1512 1511 1511 1510 1509 1509 1509 1509 1509 1508 1508 1509 1509 1510 1511 1512 1513 1514 1516 1517 1518 1519 1521 1523 1524 1525 1527 1529 1530 1532 1533 1535 1536 1537 1539 1541 1543 1545
1518 1516 1515 1514 1512 1511 1510 1510 1509 1509 1508 1508 1509 1508 1508 1508 1508 1508 1509 1509 1510 1511 1513 1514 1516 1517 1518 1520 1521 1523 1524 1526 1528 1529 1531 1533 1535 1536 1538 1539 1541 1543 1545
1517 1516 1515 1513 1512 1510 1509 1508 1508 1508 1508 1508 1508 1508 1508 1509 1507 1508 1508 1508 1509 1510 1511 1513 1515 1516 1517 1519 1520 1521 1523 1524 1526 1528 1530 1532 1534 1536 1537 1539 1541 1542 1544
1517 1515 1514 1513 1511 1510 1509 1508 1507 1507 1507 1507 1507 1508 1508 1507 1507 1508 1507 1507 1508 1509 1510 1512 1513 1514 1516 1517 1518 1520 1522 1523 1525 1527 1529 1531 1533 1535 1537 1538 1540 1542 1543
1516 1514 1513 1512 1510 1509 1508 1507 1507 1506 1506 1507 1507 1506 1507 1507 1507 1507 1507 1507 1507 1508 1509 1510 1512 1513 1514 1516 1517 1518 1520 1522 1524 1526 1527 1529 1531 1533 1535 1537 1539 1540 1542
1516 1514 1513 1511 1510 1509 1508 1507 1506 1506 1506 1506 1506 1506 1506 1506 1506 1506 1506 1507 1507 1508 1508 1509 1510 1511 1513 1514 1515 1517 1518 1520 1522 1524 1526 1528 1530 1531 1533 1535 1537 1539 1540
1516 1514 1513 1511 1510 1509 1507 1506 1505 1505 1505 1505 1505 1506 1506 1506 1506 1506 1506 1506 1506 1507 1507 1507 1509 1510 1511 1512 1514 1515 1517 1519 1520 1522 1524 1526 1528 1530 1531 1533 1535 1537 1538
1516 1514 1513 1511 1510 1508 1507 1506 1505 1504 1504 1504 1504 1504 1504 1505 1505 1505 1505 1505 1506 1506 1506 1507 1508 1508 1510 1511 1512 1513 1515 1517 1519 1520 1522 1524 1526 1528 1529 1531 1532 1534 1536
1516 1514 1512 1511 1509 1508 1506 1505 1505 1504 1504 1504 1503 1503 1503 1503 1503 1504 1505 1505 1505 1506 1506 1506 1507 1507 1509 1510 1510 1512 1513 1515 1517 1518 1520 1522 1523 1525 1527 1529 1530 1532 1533
1515 1513 1512 1511 1509 1508 1506 1505 1505 1504 1503 1503 1503 1503 1502 1502 1502 1502 1503 1504 1505 1505 1505 1505 1506 1506 1507 1508 1509 1510 1512 1513 1514 1516 1518 1519 1521 1523 1525 1526 1528 1529 1530
1514 1513 1512 1511 1509 1508 1506 1505 1505 1503 1503 1502 1501 1501 1501 1501 1501 1501 1501 1502 1503 1504 1504 1504 1504 1505 1505 1506 1507 1508 1509 1510 1512 1513 1515 1517 1519 1520 1522 1523 1525 1526 1528
1513 1512 1511 1510 1509 1508 1506 1505 1505 1503 1502 1502 1501 1501 1500 1500 1500 1500 1500 1501 1501 1502 1502 1503 1503 1504 1504 1505 1506 1506 1507 1509 1510 1511 1513 1514 1516 1517 1519 1520 1522 1523 1525
1512 1511 1510 1509 1508 1507 1506 1505 1504 1503 1502 1501 1501 1500 1500 1499 1499 1499 1499 1500 1500 1500 1501 1501 1502 1502 1503 1503 1504 1505 1506 1507 1508 1509 1510 1512 1513 1515 1516 1517 1519 1520 1521
1510 1509 1509 1508 1507 1506 1505 1504 1503 1502 1501 1501 1500 1499 1499 1499 1498 1498 1498 1499 1499 1499 1499 1500 1501 1501 1501 1502 1503 1503 1504 1505 1506 1507 1508 1509 1511 1512 1513 1515 1516 1517 1518
1508 1508 1507 1507 1506 1505 1504 1504 1503 1502 1501 1500 1499 1498 1498 1497 1497 1497 1497 1497 1497 1498 1498 1498 1499 1500 1500 1500 1501 1502 1503 1504 1505 1505 1506 1507 1508 1509 1511 1512 1513 1514 1515
1505 1505 1505 1505 1504 1503 1502 1502 1501 1501 1500 1499 1498 1497 1497 1496 1495 1495 1495 1496 1496 1496 1497 1497 1498 1498 1499 1499 1500 1500 1501 1502 1503 1504 1504 1506 1506 1507 1508 1509 1510 1511 1512
1503 1503 1503 1502 1502 1501 1500 1499 1499 1499 1499 1498 1497 1496 1496 1494 1493 1493 1493 1493 1494 1495 1496 1496 1496 1497 1497 1497 1498 1499 1500 1501 1502 1503 1503 1504 1505 1505 1506 1507 1507 1508 1509
1500 1500 1500 1500 1499 1498 1498 1497 1497 1497 1497 1496 1496 1495 1494 1493 1492 1493 1492 1492 1492 1493 1494 1495 1495 1495 1496 1496 1496 1497 1498 1499 1499 1500 1501 1502 1503 1504 1504 1505 1505 1505 1506
1497 1496 1497 1496 1496 1495 1495 1495 1494 1494 1494 1494 1493 1493 1492 1492 1491 1491 1492 1492 1492 1491 1491 1492 1493 1493 1494 1494 1495 1496 1496 1497 1498 1499 1500 1501 1501 1502 1502 1502 1502 1503 1503
1493 1493 1493 1492 1492 1492 1492 1492 1491 1491 1491 1491 1491 1490 1490 1490 1489 1489 1490 1490 1490 1490 1490 1490 1490 1491 1491 1492 1493 1494 1495 1495 1496 1497 1498 1499 1499 1500 1500 1500 1500 1500 1500
1489 1489 1489 1488 1488 1488 1488 1488 1488 1488 1488 1488 1487 1487 1486 1486 1486 1486 1487 1488 1488 1488 1488 1488 1488 1489 1489 1490 1491 1492 1492 1494 1495 1495 1495 1496 1497 1498 1498 1498 1498 1498 1498